Overview Statistics Trail Chart Weather Telemetry Raw packets
 

This is the latest recevied weather packets stored in our database for station/object JF7BTK-10. If no packets are shown the sender has not sent any weather packets the latest 10 day(s).

<< 26 27 28 29 30 31 32 >>
Time Temp. Humidity Pressure Rain* Wind** Luminosity Snow
1788390787 21.67° C 99% 1004.3 hPa 0 mm - - -
1788390351 21.67° C 99% 1004.9 hPa 0 mm - - -
1788389889 21.67° C 99% 1004.9 hPa 0 mm - - -
1788388988 21.67° C 99% 1004.7 hPa 0 mm - - -
1788388088 21.67° C 99% 1005 hPa 0 mm - - -
1788387188 21.67° C 99% 1005.2 hPa 0 mm - - -
1788386289 21.67° C 99% 1005.1 hPa 0 mm - - -
1788385388 21.67° C 99% 1005.4 hPa 0 mm - - -
1788384488 21.67° C 99% 1005.5 hPa 0 mm - - -
1788383587 21.67° C 99% 1005.8 hPa 0.25 mm - - -
1788382689 21.67° C 99% 1005.5 hPa 0.76 mm - - -
1788381788 21.67° C 99% 1005 hPa 1.78 mm - - -
1788380889 21.67° C 99% 1004.8 hPa 2.54 mm - - -
1788379988 21.67° C 99% 1004.7 hPa 4.57 mm - - -
1788379088 21.67° C 99% 1004.9 hPa 5.59 mm - - -
1788378189 21.67° C 99% 1005.6 hPa 5.33 mm - - -
1788377289 22.22° C 99% 1005.6 hPa 4.32 mm - - -
1788376388 22.22° C 99% 1005.4 hPa 2.03 mm - - -
1788375488 22.78° C 99% 1005.3 hPa 1.02 mm - - -
1788374588 22.78° C 99% 1005.1 hPa 1.27 mm - - -
1788373688 22.78° C 99% 1005.2 hPa 2.79 mm - - -
1788372789 22.78° C 99% 1005 hPa 3.05 mm - - -
1788372351 22.78° C 99% 1005 hPa 2.79 mm - - -
1788371888 22.78° C 99% 1005 hPa 2.79 mm - - -
1788370989 22.78° C 99% 1005 hPa 1.27 mm - - -

* Rain latest hour (hover to see other rain measurements)
** Current wind speed in m/s (hover to see current wind gust speed)